KM5RF Weather Reports


Display with metric or nautical units.
time (UTC)temp
F
wind
direction
speed
MPH
gust
MPH
rain 1hr
in
rain 24hr
in
rain mn
in
humidity
%
barometer
mb
20260505180037 80 211 8.0 15.0 0.00 0.00 0.00 70 1006.0
20260505174515 79 178 10.0 23.0 0.00 0.00 0.00 71 1005.9
20260505173012 80 200 12.0 22.0 0.00 0.00 0.00 70 1005.8
20260505171516 79 178 9.0 18.0 0.00 0.00 0.00 71 1005.9
20260505170026 78 209 14.0 24.0 0.00 0.00 0.00 71 1005.9
20260505164523 77 214 13.0 27.0 0.00 0.00 0.00 71 1005.7
20260505163008 77 213 9.0 25.0 0.00 0.00 0.00 71 1005.8
20260505161512 77 191 11.0 24.0 0.00 0.00 0.00 71 1006.0
20260505153034 75 191 12.0 20.0 0.00 0.00 0.00 72 1005.9
20260505151508 75 177 12.0 23.0 0.00 0.00 0.00 72 1006.0
20260505124511 70 180 10.0 20.0 0.00 0.00 0.00 78 1005.0
20260505123011 70 175 10.0 18.0 0.00 0.00 0.00 78 1004.9
20260505121514 70 188 11.0 21.0 0.00 0.00 0.00 78 1004.6
20260505120015 70 207 10.0 20.0 0.00 0.00 0.00 78 1004.7
20260505114512 70 186 11.0 23.0 0.00 0.00 0.00 77 1004.6
20260505113020 70 184 13.0 21.0 0.00 0.00 0.00 78 1004.6
20260505111514 70 189 11.0 20.0 0.00 0.00 0.00 77 1004.6
20260505101518 69 195 11.0 17.0 0.00 0.00 0.00 78 1004.8
20260505100021 69 215 10.0 17.0 0.00 0.00 0.00 78 1004.7
20260505094519 69 186 11.0 20.0 0.00 0.00 0.00 78 1004.9
20260505093026 70 177 9.0 18.0 0.00 0.00 0.00 78 1005.1
20260505091514 70 178 11.0 19.0 0.00 0.00 0.00 78 1005.1
20260505090020 70 184 9.0 20.0 0.00 0.00 0.00 78 1005.0
20260505084521 70 169 10.0 22.0 0.00 0.00 0.00 78 1005.1
20260505083024 69 175 10.0 24.0 0.00 0.00 0.00 78 1005.0
20260505081531 69 168 8.0 19.0 0.00 0.00 0.00 78 1005.2
20260505080032 69 190 11.0 22.0 0.00 0.00 0.00 78 1005.3
20260505074522 69 207 10.0 22.0 0.00 0.00 0.00 78 1005.5
20260505073006 69 183 13.0 19.0 0.00 0.00 0.00 78 1005.8
20260505071508 69 172 10.0 21.0 0.00 0.00 0.00 78 1006.1
20260505070014 70 213 12.0 20.0 0.00 0.00 0.00 78 1006.2
20260505064523 70 178 12.0 24.0 0.00 0.00 0.00 78 1006.7
20260505063026 70 181 12.0 21.0 0.00 0.00 0.00 78 1006.7
20260505061506 70 200 9.0 20.0 0.00 0.00 0.00 78 1006.7
20260505060012 71 182 11.0 20.0 0.00 0.00 0.00 78 1006.6
20260505054518 71 204 9.0 18.0 0.00 0.00 0.00 78 1006.6
20260505053022 71 179 8.0 20.0 0.00 0.00 0.00 77 1006.9
20260505051524 71 193 10.0 17.0 0.00 0.00 0.00 77 1007.0
20260505041531 72 173 7.0 13.0 0.00 0.00 0.00 76 1007.1
20260505040028 72 172 7.0 14.0 0.00 0.00 0.00 76 1007.1
20260505034509 72 178 8.0 16.0 0.00 0.00 0.00 75 1006.9
20260505033019 72 181 8.0 16.0 0.00 0.00 0.00 75 1007.0
20260505031522 72 188 9.0 16.0 0.00 0.00 0.00 75 1007.1
20260505030026 72 165 7.0 13.0 0.00 0.00 0.00 75 1007.1
20260505024540 72 175 6.0 16.0 0.00 0.00 0.00 75 1006.9
20260505023027 73 162 6.0 14.0 0.00 0.00 0.00 74 1006.9
20260505021520 73 177 6.0 13.0 0.00 0.00 0.00 74 1006.9
20260505020024 73 184 3.0 12.0 0.00 0.00 0.00 73 1006.7
20260505014536 74 171 5.0 15.0 0.00 0.00 0.00 73 1006.8
20260505013031 74 65 4.0 12.0 0.00 0.00 0.00 72 1006.7
20260505011533 74 166 6.0 14.0 0.00 0.00 0.00 72 1006.6
20260505010020 75 155 7.0 16.0 0.00 0.00 0.00 71 1006.6
20260505004524 75 172 8.0 19.0 0.00 0.00 0.00 70 1006.8
20260505003026 76 164 10.0 19.0 0.00 0.00 0.00 69 1006.7
20260505001515 76 201 10.0 16.0 0.00 0.00 0.00 69 1007.0
20260505000028 76 178 11.0 19.0 0.00 0.00 0.00 68 1007.0
20260504234522 77 192 11.0 27.0 0.00 0.00 0.00 67 1007.0
20260504233028 77 190 11.0 23.0 0.00 0.00 0.00 68 1007.2
20260504231535 77 182 12.0 28.0 0.00 0.00 0.00 67 1007.2
20260504230017 77 170 11.0 22.0 0.00 0.00 0.00 67 1007.4
20260504224522 78 193 13.0 25.0 0.00 0.00 0.00 65 1007.8
20260504223022 78 152 14.0 23.0 0.00 0.00 0.00 66 1007.7
20260504221524 78 195 13.0 24.0 0.00 0.00 0.00 66 1007.6
20260504220034 78 179 12.0 24.0 0.00 0.00 0.00 66 1007.9
20260504214516 79 182 12.0 24.0 0.00 0.00 0.00 65 1008.0
20260504213020 79 147 12.0 24.0 0.00 0.00 0.00 64 1008.4
20260504211528 79 171 12.0 25.0 0.00 0.00 0.00 65 1008.5
20260504210039 80 178 12.0 21.0 0.00 0.00 0.00 65 1008.8
20260504204528 79 174 12.0 30.0 0.00 0.00 0.00 63 1009.0
20260504203025 79 171 13.0 25.0 0.00 0.00 0.00 64 1009.5
20260504201522 79 187 12.0 26.0 0.00 0.00 0.00 64 1009.8
20260504200026 78 159 13.0 26.0 0.00 0.00 0.00 64 1010.2
20260504194539 78 194 12.0 23.0 0.00 0.00 0.00 65 1010.4
20260504193030 78 224 11.0 26.0 0.00 0.00 0.00 64 1010.5
20260504191532 78 171 11.0 23.0 0.00 0.00 0.00 63 1010.6
20260504190029 77 173 10.0 23.0 0.00 0.00 0.00 65 1011.1
20260504184510 77 155 12.0 24.0 0.00 0.00 0.00 64 1011.1
20260504183012 77 179 10.0 24.0 0.00 0.00 0.00 65 1011.4
20260504181518 76 161 8.0 24.0 0.00 0.00 0.00 65 1011.7